Location: Unspecified
(48.5670°N, 0.0000°E)
Time: 04:54:29
(UTC+00:00)

Vanguard 2 Rocket - Pass Details

Date: 29 August 2019
Orbit: 554 x 3327 km, 32.9° (Epoch: 17 September)

Event Time Altitude Azimuth Distance (km) Brightness Sun altitude
Rises 03:37:57 0° 251° (WSW) 4,791 - -15.0°
Reaches altitude 10° 03:40:51 10° 244° (WSW) 4,129 - -14.6°
Exits shadow 03:42:49 18° 237° (WSW) 3,753 9.3 -14.3°
Maximum altitude 03:51:44 42° 179° (S) 3,261 9.4 -13.1°
Drops below altitude 10° 04:08:15 10° 117° (ESE) 6,139 11.6 -10.7°
Sets 04:13:45 0° 112° (ESE) 7,288 12.2 -9.9°
